GalileoSat-31

operational
NORAD ID: 61182 Int'l Des: 2024-167 Owner: EUSPA Country: I-EU Constellation: Galileo
MEOCIRCULAR

GalileoSat-31について

説明を読み込み中...

リアルタイム位置

3D地球を読み込み中...

次回通過

高度履歴

Altitude vs Time

uPlot chart will show altitude changes over time

軌道要素

1 61182U 24167A 25298.35322584 .00000004 00000-0 00000+0 0 9999
2 61182 55.2597 227.7582 0003410 232.7848 311.4994 1.70473479 6872
Epoch: Oct 25, 2025 • Age: 27 hours

現在のステータス

高度 23221.0 km
速度 3.67 km/s
衛星直下点 22.49°N, 174.77°W
打ち上げ日 Sep 17, 2024
運用期間 1.1 years
タイプ navigation

技術仕様

分類 Payload
質量 733.00 kg
乾燥質量 660.00 kg
総質量 733.00 kg
長さ 2.70 m
直径 1.60 m
スパン 14.50 m
形状 Box+2 pan
製造者 OHB
バスタイプ Galileo
フェーズステータス In Orbit
所有者/国 EUSPA/I-EU

大規模コンステレーション

Loading constellations...